Location: ??
(35.4824°N, 139.4679°E)
Time: 08:01:43
(UTC+00:00)

Cosmos 1992 Rocket - Pass Details

Date: 29 October 2020
Orbit: 759 x 766 km, 74.0° (Epoch: 03 December)

Event Time Altitude Azimuth Distance (km) Brightness Sun altitude
Exits shadow 19:40:12 - 335° (NNW) 2,577 6.4 -17.1°
Reaches altitude 10° 19:40:56 10° 333° (NNW) 2,297 6.2 -17.0°
Maximum altitude 19:46:01 56° 256° (WSW) 906 4.0 -16.0°
Drops below altitude 10° 19:51:05 10° 180° (S) 2,287 6.5 -14.9°
Sets 19:53:28 0° 176° (S) 3,210 7.4 -14.5°
